Time,TemperatureF,DewpointF,PressureIn,WindDirection,WindDirectionDegrees,WindSpeedMPH,WindSpeedGustMPH,Humidity,HourlyPrecipIn,Conditions,Clouds,dailyrainin,SolarRadiationWatts/m^2,SoftwareType,DateUTC
2013-01-17 00:33:00,43.0,43.0,-100.00,SE,128,1.0,3.0,100,0.00,,,-99.99,0.000000,,2013-01-17 05:33:00,
2013-01-17 00:43:00,43.0,43.0,-100.00,SE,128,1.0,3.0,100,0.00,,,-99.99,0.000000,,2013-01-17 05:43:00,
2013-01-17 00:53:00,43.0,43.0,-100.00,SE,128,1.0,3.0,100,0.00,,,-99.99,0.000000,,2013-01-17 05:53:00,
2013-01-17 01:03:00,43.0,43.0,-100.00,SE,128,1.0,3.0,100,0.00,,,-99.99,0.000000,,2013-01-17 06:03:00,
2013-01-17 01:33:00,44.0,44.0,-100.00,NW,320,1.0,4.0,100,0.00,,,-99.99,0.000000,,2013-01-17 06:33:00,
2013-01-17 01:42:00,44.0,44.0,-100.00,NW,320,1.0,4.0,100,0.00,,,-99.99,0.000000,,2013-01-17 06:42:00,
2013-01-17 01:53:00,44.0,44.0,-100.00,NW,320,1.0,4.0,100,0.00,,,-99.99,0.000000,,2013-01-17 06:53:00,
2013-01-17 02:02:00,44.0,44.0,-100.00,NW,320,1.0,4.0,100,0.00,,,-99.99,0.000000,,2013-01-17 07:02:00,
2013-01-17 02:33:00,44.0,44.0,-100.00,North,353,0.0,4.0,100,0.01,,,-99.99,0.000000,,2013-01-17 07:33:00,
2013-01-17 02:43:00,44.0,44.0,-100.00,North,353,0.0,4.0,100,0.01,,,-99.99,0.000000,,2013-01-17 07:43:00,
2013-01-17 02:53:00,44.0,44.0,-100.00,North,353,0.0,4.0,100,0.01,,,-99.99,0.000000,,2013-01-17 07:53:00,
2013-01-17 03:02:00,44.0,44.0,-100.00,North,353,0.0,4.0,100,0.01,,,-99.99,0.000000,,2013-01-17 08:02:00,
2013-01-17 03:32:00,44.0,44.0,-100.00,WNW,289,1.0,3.0,100,0.02,,,-99.99,0.000000,,2013-01-17 08:32:00,
2013-01-17 03:43:00,44.0,44.0,-100.00,WNW,289,1.0,3.0,100,0.02,,,-99.99,0.000000,,2013-01-17 08:43:00,
2013-01-17 03:53:00,44.0,44.0,-100.00,WNW,289,1.0,3.0,100,0.02,,,-99.99,0.000000,,2013-01-17 08:53:00,
2013-01-17 04:03:00,44.0,44.0,-100.00,WNW,289,1.0,3.0,100,0.02,,,-99.99,0.000000,,2013-01-17 09:03:00,
2013-01-17 04:33:00,43.0,43.0,-100.00,WNW,290,2.0,4.0,100,0.00,,,-99.99,0.000000,,2013-01-17 09:33:00,
2013-01-17 04:43:00,43.0,43.0,-100.00,WNW,290,2.0,4.0,100,0.00,,,-99.99,0.000000,,2013-01-17 09:43:00,
2013-01-17 04:53:00,43.0,43.0,-100.00,WNW,290,2.0,4.0,100,0.00,,,-99.99,0.000000,,2013-01-17 09:53:00,
2013-01-17 05:02:00,43.0,43.0,-100.00,WNW,290,2.0,4.0,100,0.00,,,-99.99,0.000000,,2013-01-17 10:02:00,
2013-01-17 05:33:00,43.0,42.0,-100.00,NNE,20,3.0,8.0,98,0.03,,,-99.99,0.000000,,2013-01-17 10:33:00,
2013-01-17 05:43:00,43.0,42.0,-100.00,NNE,20,3.0,8.0,98,0.03,,,-99.99,0.000000,,2013-01-17 10:43:00,
2013-01-17 05:53:00,43.0,42.0,-100.00,NNE,20,3.0,8.0,98,0.03,,,-99.99,0.000000,,2013-01-17 10:53:00,
2013-01-17 06:03:00,43.0,42.0,-100.00,NNE,20,3.0,8.0,98,0.03,,,-99.99,0.000000,,2013-01-17 11:03:00,
2013-01-17 06:33:00,41.0,40.0,-100.00,NNE,29,3.0,7.0,98,0.05,,,-99.99,0.000000,,2013-01-17 11:33:00,
2013-01-17 06:43:00,41.0,40.0,-100.00,NNE,29,3.0,7.0,98,0.05,,,-99.99,0.000000,,2013-01-17 11:43:00,
2013-01-17 06:53:00,41.0,40.0,-100.00,NNE,29,3.0,7.0,98,0.05,,,-99.99,0.000000,,2013-01-17 11:53:00,
2013-01-17 07:02:00,41.0,40.0,-100.00,NNE,29,3.0,7.0,98,0.05,,,-99.99,0.000000,,2013-01-17 12:02:00,
2013-01-17 07:33:00,42.0,42.0,-100.00,NE,43,2.0,6.0,100,0.00,,,-99.99,0.000000,,2013-01-17 12:33:00,
2013-01-17 07:43:00,42.0,42.0,-100.00,NE,43,2.0,6.0,100,0.00,,,-99.99,0.000000,,2013-01-17 12:43:00,
2013-01-17 07:53:00,42.0,42.0,-100.00,NE,43,2.0,6.0,100,0.00,,,-99.99,0.000000,,2013-01-17 12:53:00,
2013-01-17 08:03:00,42.0,42.0,-100.00,NE,43,2.0,6.0,100,0.00,,,-99.99,0.000000,,2013-01-17 13:03:00,
2013-01-17 08:33:00,41.0,39.0,-100.00,NE,51,4.0,14.0,91,0.00,,,-99.99,1.000000,,2013-01-17 13:33:00,
2013-01-17 08:43:00,41.0,39.0,-100.00,NE,51,4.0,14.0,91,0.00,,,-99.99,1.000000,,2013-01-17 13:43:00,
2013-01-17 08:53:00,41.0,39.0,-100.00,NE,51,4.0,14.0,91,0.00,,,-99.99,1.000000,,2013-01-17 13:53:00,
2013-01-17 09:03:00,41.0,39.0,-100.00,NE,51,4.0,14.0,91,0.00,,,-99.99,1.000000,,2013-01-17 14:03:00,
2013-01-17 09:33:00,41.0,38.0,-100.00,East,85,3.0,11.0,88,0.00,,,-99.99,18.000000,,2013-01-17 14:33:00,
2013-01-17 09:43:00,41.0,38.0,-100.00,East,85,3.0,11.0,88,0.00,,,-99.99,18.000000,,2013-01-17 14:43:00,
2013-01-17 09:53:00,41.0,38.0,-100.00,East,85,3.0,11.0,88,0.00,,,-99.99,18.000000,,2013-01-17 14:53:00,
2013-01-17 10:03:00,41.0,38.0,-100.00,East,85,3.0,11.0,88,0.00,,,-99.99,18.000000,,2013-01-17 15:03:00,
2013-01-17 10:33:00,39.0,36.0,-100.00,ENE,68,6.0,10.0,88,0.06,,,-99.99,27.000000,,2013-01-17 15:33:00,
2013-01-17 10:43:00,39.0,36.0,-100.00,ENE,68,6.0,10.0,88,0.06,,,-99.99,27.000000,,2013-01-17 15:43:00,
2013-01-17 10:53:00,39.0,36.0,-100.00,ENE,68,6.0,10.0,88,0.06,,,-99.99,27.000000,,2013-01-17 15:53:00,
2013-01-17 11:03:00,39.0,36.0,-100.00,ENE,68,6.0,10.0,88,0.06,,,-99.99,27.000000,,2013-01-17 16:03:00,
2013-01-17 11:34:00,38.0,36.0,-100.00,NE,36,5.0,9.0,93,0.12,,,-99.99,31.000000,,2013-01-17 16:34:00,
2013-01-17 11:44:00,38.0,36.0,-100.00,NE,36,5.0,9.0,93,0.12,,,-99.99,31.000000,,2013-01-17 16:44:00,
2013-01-17 11:53:00,38.0,36.0,-100.00,NE,36,5.0,9.0,93,0.12,,,-99.99,31.000000,,2013-01-17 16:53:00,
2013-01-17 12:03:00,38.0,36.0,-100.00,NE,36,5.0,9.0,93,0.12,,,-99.99,31.000000,,2013-01-17 17:03:00,
2013-01-17 12:33:00,36.0,35.0,-100.00,ENE,64,8.0,16.0,95,0.21,,,-99.99,15.000000,,2013-01-17 17:33:00,
2013-01-17 12:43:00,36.0,35.0,-100.00,ENE,64,8.0,16.0,95,0.21,,,-99.99,15.000000,,2013-01-17 17:43:00,
2013-01-17 12:54:00,36.0,35.0,-100.00,ENE,64,8.0,16.0,95,0.21,,,-99.99,15.000000,,2013-01-17 17:54:00,
2013-01-17 13:04:00,36.0,35.0,-100.00,ENE,64,8.0,16.0,95,0.21,,,-99.99,15.000000,,2013-01-17 18:04:00,
2013-01-17 13:34:00,35.0,34.0,-100.00,NE,56,8.0,14.0,98,0.30,,,-99.99,11.000000,,2013-01-17 18:34:00,
2013-01-17 13:44:00,35.0,34.0,-100.00,NE,56,8.0,14.0,98,0.30,,,-99.99,11.000000,,2013-01-17 18:44:00,
2013-01-17 13:54:00,35.0,34.0,-100.00,NE,56,8.0,14.0,98,0.30,,,-99.99,11.000000,,2013-01-17 18:54:00,
2013-01-17 14:04:00,35.0,34.0,-100.00,NE,56,8.0,14.0,98,0.30,,,-99.99,11.000000,,2013-01-17 19:04:00,
2013-01-17 14:33:00,35.0,35.0,-100.00,ENE,59,6.0,12.0,99,0.22,,,-99.99,13.000000,,2013-01-17 19:33:00,
2013-01-17 14:43:00,35.0,35.0,-100.00,ENE,59,6.0,12.0,99,0.22,,,-99.99,13.000000,,2013-01-17 19:43:00,
2013-01-17 14:54:00,35.0,35.0,-100.00,ENE,59,6.0,12.0,99,0.22,,,-99.99,13.000000,,2013-01-17 19:54:00,
2013-01-17 15:03:00,35.0,35.0,-100.00,ENE,59,6.0,12.0,99,0.22,,,-99.99,13.000000,,2013-01-17 20:03:00,
2013-01-17 21:33:00,35.0,33.0,-100.00,WSW,240,3.0,7.0,93,-99.99,,,1.26,0.000000,,2013-01-18 02:33:00,
2013-01-17 21:43:00,35.0,33.0,-100.00,WSW,240,3.0,7.0,93,-99.99,,,1.26,0.000000,,2013-01-18 02:43:00,
2013-01-17 21:53:00,35.0,33.0,-100.00,WSW,240,3.0,7.0,93,-99.99,,,1.26,0.000000,,2013-01-18 02:53:00,
2013-01-17 22:02:00,35.0,33.0,-100.00,WSW,240,3.0,7.0,93,-99.99,,,1.26,0.000000,,2013-01-18 03:02:00,
2013-01-17 22:33:00,34.0,32.0,-100.00,NW,308,3.0,11.0,91,0.00,,,1.26,0.000000,,2013-01-18 03:33:00,
2013-01-17 22:43:00,34.0,32.0,-100.00,NW,308,3.0,11.0,91,0.00,,,1.26,0.000000,,2013-01-18 03:43:00,
2013-01-17 22:53:00,34.0,32.0,-100.00,NW,308,3.0,11.0,91,0.00,,,1.26,0.000000,,2013-01-18 03:53:00,
2013-01-17 23:02:00,34.0,32.0,-100.00,NW,308,3.0,11.0,91,0.00,,,1.26,0.000000,,2013-01-18 04:02:00,
2013-01-17 23:33:00,32.0,31.0,-100.00,WNW,302,0.0,6.0,97,0.00,,,1.26,0.000000,,2013-01-18 04:33:00,
2013-01-17 23:43:00,32.0,31.0,-100.00,WNW,302,0.0,6.0,97,0.00,,,1.26,0.000000,,2013-01-18 04:43:00,
2013-01-17 23:53:00,32.0,31.0,-100.00,WNW,302,0.0,6.0,97,0.00,,,1.26,0.000000,,2013-01-18 04:53:00,